Content
SEND FEEDBACK

Daily
Averages
Monthly
Summary
United States of America

ANN ARBOR, MICHIGAN


Home > North America > United States > Michigan
Elevation: 231 meters     Latitude: 42 17N     Longitude: 083 43W

WEATHER
 
SELECT A DAY
Number of Records: 208,181;   Date Range: 1/1/95 - 11/27/14
 
SHARE

PRINT THIS DATA

[ ← Previous Day ]
WEATHER ALMANAC - 27 JANUARY, 2013
[ Next Day → ]
[ °F ]   °C
Weather ElementAverageHighLow
Temperature-6.6 °C-1.1 °C (11:53 pm)-16 °C (4:18 am)
Dewpoint-8.8 °C-3 °C (10:22 pm)-18 °C (4:18 am)
Humidity85.6 %100 % (2:09 am)61 % (2:53 pm)
Barometer1027.4 hPa1032.8 hPa (7:53 am)1020.3 hPa (11:10 pm)
Wind Speed9.5 km/h24.1 km/h (8:53 pm)
Wind Gust33.3 km/h (11:10 pm)
Weather ElementAverage
Visibility6.8 km
Wind DirectionESE (96.3 °)

Weather ElementTotal
Precipitation13.72 mm
Heating Degree Days26.9 (Base 18.3)
Averaged from 54 records on 27 January, 2013
WEATHER CONDITIONS BREAKOUT
WIND DIRECTION BREAKOUT
WEATHER BY HOUR - 27 JANUARY, 2013
[ °F ]   °C
Local TimeTemperatureDewpointHumidityBarometerVisibilityWind DirectionWind SpeedGust SpeedPrecipitationEventsConditions
1:53 AM-12.2 °C-13.9 °C87 %1032.2 hPa3.2 kmCalmClear
2:05 AM-13 °C-14 °C92 %1030.5 hPa4.8 kmCalmClear
2:09 AM-14 °C-14 °C100 %1030.5 hPa2.9 kmCalmClear
2:14 AM-15 °C-16 °C92 %1030.5 hPa1.3 kmCalmClear
2:30 AM-13 °C-15 °C85 %1030.5 hPa3.2 kmCalmClear
2:37 AM-13 °C-15 °C85 %1030.5 hPa8 kmCalmClear
2:53 AM-11.7 °C-13.9 °C84 %1032.2 hPa9.7 kmCalmClear
3:53 AM-12.8 °C-14.4 °C88 %1031.8 hPa9.7 kmCalmClear
4:18 AM-16 °C-18 °C85 %1030.1 hPa4 kmCalmClear
4:22 AM-15 °C-17 °C85 %1030.1 hPa1.3 kmCalmClear
4:35 AM-15 °C-17 °C85 %1030.1 hPa2.4 kmCalmClear
4:38 AM-14 °C-17 °C79 %1030.1 hPa6.4 kmCalmPartly Cloudy
4:53 AM-15.6 °C-16.7 °C91 %1032.2 hPa11.3 kmCalmPartly Cloudy
5:53 AM-13.9 °C-16.1 °C84 %1032.5 hPa14.5 kmCalmPartly Cloudy
6:53 AM-11.7 °C-13.3 °C88 %1032.5 hPa14.5 kmCalmMostly Cloudy
7:53 AM-13.9 °C-15.6 °C87 %1032.8 hPa11.3 kmCalmPartly Cloudy
8:53 AM-9.4 °C-10 °C95 %1032.8 hPa12.9 kmCalmClear
9:53 AM-6.7 °C-10.6 °C74 %1032.2 hPa16.1 kmSouth (190°)13 km/hClear
10:53 AM-5 °C-10.6 °C65 %1032.2 hPa16.1 kmSouth (180°)13 km/hClear
11:53 AM-4.4 °C-10.6 °C62 %1032.2 hPa16.1 kmSouth (190°)14.8 km/hOvercast
12:53 PM-3.9 °C-10 °C63 %1031.5 hPa16.1 kmSouth (190°)18.5 km/hOvercast
1:53 PM-3.3 °C-9.4 °C63 %1030.1 hPa16.1 kmSouth (180°)9.3 km/hOvercast
2:53 PM-2.8 °C-9.4 °C61 %1028.8 hPa16.1 kmSE (140°)11.1 km/hMostly Cloudy
3:53 PM-2.8 °C-8.3 °C66 %1028.1 hPa16.1 kmSE (140°)13 km/hPartly Cloudy
4:53 PM-2.8 °C-7.8 °C69 %1027.8 hPa14.5 kmSE (140°)11.1 km/hOvercast
5:53 PM-2.8 °C-6.7 °C75 %1028.4 hPa8 kmSSE (150°)9.3 km/h0 mmSnowLight Snow
6:03 PM-3 °C-6 °C80 %1027.1 hPa3.2 kmSSE (160°)7.4 km/h0 mmSnowLight Snow
6:08 PM-3 °C-6 °C80 %1027.1 hPa1.9 kmSSE (150°)11.1 km/h0 mmSnowLight Snow
6:19 PM-4 °C-6 °C86 %1026.8 hPa1.3 kmSE (140°)11.1 km/h0.25 mmSnowLight Snow
6:26 PM-4 °C-5 °C93 %1026.8 hPa0.8 kmSE (140°)11.1 km/h0.51 mmFog-SnowSnow
6:53 PM-3.9 °C-4.4 °C96 %1027.8 hPa2.4 kmSE (140°)13 km/h1.78 mmSnowLight Snow
7:17 PM-4 °C-5 °C93 %1025.7 hPa1.9 kmSE (130°)11.1 km/h0.51 mmSnowLight Snow
7:22 PM-4 °C-6 °C86 %1025.4 hPa3.2 kmESE (120°)13 km/h0.51 mmSnowLight Snow
7:31 PM-4 °C-5 °C93 %1025.7 hPa1.9 kmEast (100°)13 km/h1.02 mmSnowLight Snow
7:42 PM-4 °C-5 °C93 %1025.4 hPa2.4 kmESE (110°)14.8 km/h1.27 mmSnowLight Snow
7:47 PM-4 °C-5 °C93 %1025.4 hPa1.3 kmESE (120°)11.1 km/h1.27 mmSnowLight Snow
7:53 PM-3.9 °C-5.6 °C88 %1026.8 hPa1.3 kmEast (100°)14.8 km/h1.52 mmSnowLight Snow
7:59 PM-4 °C-5 °C93 %1025.1 hPa1.3 kmEast (100°)11.1 km/h0.25 mmSnowLight Snow
8:12 PM-4 °C-5 °C93 %1024.7 hPa1.6 kmEast (90°)11.1 km/h0.51 mmSnowLight Snow
8:20 PM-4 °C-5 °C93 %1024 hPa2.9 kmEast (80°)14.8 km/h0.51 mmSnowLight Snow
8:27 PM-4 °C-5 °C93 %1024.7 hPa4 kmEast (90°)13 km/h0.51 mmSnowLight Snow
8:34 PM-4 °C-5 °C93 %1024.7 hPa6.4 kmSSE (150°)9.3 km/h0.51 mmOvercast
8:44 PM-4 °C-5 °C93 %1024 hPa4 kmSE (140°)16.7 km/h0.51 mmSnowLight Snow
8:50 PM-4 °C-4 °C100 %1023 hPa1.9 kmESE (120°)20.4 km/h0.51 mmSnowLight Snow
8:53 PM-3.9 °C-5 °C92 %1024.4 hPa1.9 kmESE (120°)24.1 km/h0.51 mmSnowLight Snow
9:00 PM-3 °C-5 °C86 %1023.4 hPa3.2 kmSE (130°)18.5 km/h0 mmSnowLight Snow
9:11 PM-3 °C-4 °C93 %1023 hPa6.4 kmSSE (150°)18.5 km/h31.5 km/h0 mmOvercast
9:53 PM-2.8 °C-3.9 °C92 %1024 hPa6.4 kmSSE (160°)16.7 km/h0.25 mmOvercast
10:06 PM-3 °C-4 °C93 %1022.7 hPa6.4 kmSSE (150°)13 km/h0 mmOvercast
10:22 PM-2 °C-3 °C93 %1022.4 hPa6.4 kmSE (140°)14.8 km/h0 mmRainLight Freezing Rain
10:44 PM-2 °C-4 °C86 %1021.3 hPa8 kmSSE (150°)13 km/h0 mmOvercast
10:53 PM-2.2 °C-3.9 °C88 %1023 hPa9.7 kmSouth (180°)14.8 km/h0 mmOvercast
11:10 PM-2 °C-4 °C86 %1020.3 hPa9.7 kmSSE (160°)20.4 km/h33.3 km/hOvercast
11:53 PM-1.1 °C-3.3 °C85 %1021 hPa6.4 kmSouth (180°)18.5 km/h33.3 km/h1.02 mmRainLight Freezing Rain
Hourly data recorded from KARB, located 0 kilometers away from Ann Arbor, Michigan







STORIES FROM OUR PARTNERS